Location: Northcutt
(34.7304°N, 84.4305°W)
Time: 17:04:59
(UTC+00:00)

SR - Pass Details

Date: 08 October 2022
Orbit: 577 x 874 km, 66.7° (Epoch: 05 December)

Event Time Altitude Azimuth Distance (km) Brightness Sun altitude
Rises 11:09:46 0° 322° (NW) 3,229 ? -6.6°
Reaches altitude 10° 11:12:28 10° 313° (NW) 2,246 ? -6.0°
Maximum altitude 11:16:56 31° 252° (WSW) 1,202 ? -5.1°
Drops below altitude 10° 11:21:03 10° 190° (S) 2,064 ? -4.3°
Sets 11:23:27 0° 180° (S) 2,925 ? -3.8°
